GFSNGP_700_temp_048.txt.gz
Temp
7 7 8 7 8 7 8 8 8 7 7 8 9 8 7 7 7 7 7 6 6 6 5 5 6 6 6 6 6 5 4 4 4 3 3 3 3 2 2 1 1 0 0 -0
5 6 7 7 6 8 8 8 8 8 8 8 8 8 8 8 8 7 6 6 5 6 5 4 6 6 6 6 5 4 4 4 4 3 3 3 3 2 1 1 1 1 -0 -1
5 5 6 7 7 8 8 8 8 8 8 8 8 7 8 8 7 7 6 5 5 5 4 4 5 6 6 5 5 4 4 4 3 3 3 2 2 2 2 1 0 -0 -1 -1
5 5 4 6 7 7 7 7 7 8 8 8 8 8 8 7 7 6 6 5 5 5 5 4 5 5 5 5 5 4 4 4 3 3 2 2 2 1 1 0 -0 -1 -2 -2
4 4 5 5 6 6 6 7 7 7 7 8 8 7 7 7 7 6 6 5 5 5 4 5 5 5 5 4 4 4 3 3 3 3 2 2 1 1 0 -0 -1 -1 -2 -3
3 3 3 4 5 6 6 6 7 7 7 7 7 7 6 6 5 5 5 5 5 4 4 4 4 4 4 3 3 3 3 3 2 2 1 1 0 -0 -0 -1 -2 -2 -3 -4
1 2 4 5 5 5 6 6 6 7 7 7 7 6 6 5 5 5 4 4 5 4 4 4 3 3 3 3 3 3 3 2 1 1 0 -0 -0 -1 -1 -2 -2 -4 -4 -5
0 1 2 5 5 6 6 6 6 6 6 6 6 5 5 5 5 4 4 4 4 4 3 3 3 3 3 3 3 2 2 1 1 0 -0 -0 -1 -2 -2 -3 -4 -5 -6 -6
1 2 3 4 5 5 6 6 6 6 6 6 5 5 5 5 5 4 4 4 4 3 3 2 2 2 2 2 2 1 1 0 -0 -0 -1 -1 -2 -3 -3 -4 -5 -6 -6 -7
1 1 3 2 4 4 5 5 5 5 5 5 5 5 5 4 4 4 4 4 3 3 3 2 2 2 2 1 1 1 0 -0 -1 -2 -2 -2 -3 -4 -5 -6 -6 -7 -8 -8
2 2 2 3 2 3 4 4 3 4 4 4 4 4 4 4 4 4 4 3 3 3 2 2 2 2 1 1 0 -0 -1 -1 -2 -3 -3 -4 -5 -6 -7 -7 -8 -8 -9 -9
2 2 3 2 2 1 2 3 3 4 4 4 4 4 4 3 4 3 3 3 3 2 2 2 2 1 1 0 -0 -1 -1 -2 -3 -4 -5 -5 -6 -7 -8 -9 -9 -9 -10 -10
2 2 2 2 3 3 3 3 2 3 3 4 3 3 3 3 3 3 3 3 2 2 2 1 1 1 0 0 -0 -1 -2 -4 -4 -5 -6 -8 -9 -9 -10 -10 -10 -10 -10 -11
2 1 1 2 2 3 3 3 3 3 3 3 3 3 3 2 2 2 2 2 1 1 1 1 1 1 0 -1 -2 -3 -4 -4 -5 -6 -10 -11 -12 -11 -12 -12 -12 -11 -11 -11
-0 1 1 1 1 1 3 3 2 2 2 2 3 2 3 2 2 1 1 1 1 1 1 1 0 -0 -1 -2 -3 -4 -4 -5 -8 -11 -11 -10 -11 -12 -12 -12 -12 -13 -13 -12
0 0 -0 0 0 0 1 2 2 2 2 2 2 2 2 1 0 1 0 1 1 1 1 0 -1 -2 -3 -5 -5 -5 -7 -9 -9 -10 -10 -11 -11 -12 -12 -12 -14 -13 -13 -13
-1 -1 -1 -0 -0 0 1 1 1 1 1 1 1 1 0 0 1 0 0 -1 -1 0 -1 -3 -4 -5 -5 -6 -8 -10 -9 -10 -11 -11 -11 -11 -12 -12 -13 -14 -14 -14 -14 -14
-2 -2 -1 -1 -1 -1 -0 0 1 1 1 1 1 1 0 -0 -2 -2 -2 -3 -4 -5 -5 -6 -6 -8 -10 -10 -9 -9 -10 -11 -11 -11 -11 -12 -13 -13 -14 -15 -15 -15 -15 -15
-2 -2 -1 -1 -1 -1 -1 -1 -1 -0 -0 -1 -1 -1 -2 -3 -4 -5 -5 -6 -7 -8 -9 -9 -10 -10 -10 -10 -10 -11 -11 -11 -12 -12 -13 -14 -14 -14 -14 -15 -15 -15 -16 -16
-3 -3 -2 -2 -3 -3 -2 -3 -2 -2 -2 -2 -3 -3 -4 -5 -7 -8 -8 -8 -9 -10 -10 -11 -11 -11 -11 -12 -12 -12 -12 -12 -13 -14 -14 -15 -15 -15 -15 -16 -16 -16 -17 -17
-4 -4 -3 -3 -3 -3 -3 -3 -3 -4 -5 -6 -6 -7 -8 -8 -9 -10 -10 -10 -11 -11 -11 -12 -12 -13 -13 -13 -13 -13 -13 -14 -15 -15 -15 -15 -16 -16 -16 -17 -17 -17 -18 -18
-6 -5 -5 -5 -6 -6 -6 -7 -8 -8 -8 -9 -10 -10 -10 -10 -11 -11 -12 -12 -12 -12 -13 -13 -13 -13 -13 -13 -14 -14 -15 -15 -15 -16 -16 -16 -17 -17 -18 -18 -18 -19 -19 -20
-8 -8 -8 -9 -9 -9 -9 -10 -10 -10 -10 -10 -11 -11 -11 -11 -12 -12 -13 -13 -13 -13 -13 -13 -14 -14 -14 -15 -15 -15 -16 -16 -16 -17 -17 -18 -18 -19 -19 -20 -20 -20 -21 -21
-9 -9 -9 -10 -10 -10 -10 -10 -11 -11 -11 -11 -12 -12 -12 -13 -13 -13 -14 -14 -14 -14 -14 -14 -15 -15 -15 -16 -16 -16 -17 -17 -18 -19 -19 -20 -20 -20 -21 -21 -21 -22 -22 -22
-10 -10 -10 -11 -11 -11 -11 -11 -12 -12 -12 -13 -13 -13 -13 -14 -14 -14 -14 -14 -15 -15 -15 -15 -16 -16 -17 -17 -17 -18 -18 -19 -20 -20 -21 -21 -22 -22 -23 -23 -23 -23 -23 -24
-12 -12 -12 -12 -12 -12 -13 -13 -13 -13 -13 -13 -14 -14 -14 -15 -15 -15 -15 -15 -16 -16 -16 -16 -17 -17 -18 -19 -19 -20 -20 -21 -21 -22 -23 -23 -24 -24 -24 -24 -24 -25 -25 -25
-13 -13 -13 -13 -13 -13 -14 -14 -14 -14 -14 -14 -14 -15 -15 -15 -15 -16 -16 -16 -17 -17 -18 -18 -19 -19 -19 -20 -20 -21 -22 -23 -24 -24 -25 -25 -26 -26 -26 -26 -26 -26 -26 -26

GFSNGP_700_temp_051.txt.gz
Temp
5 6 6 7 7 7 7 7 7 7 7 7 8 8 8 8 7 7 7 7 6 6 6 6 7 6 6 5 5 4 4 5 5 5 4 4 4 3 3 2 2 2 1 1
5 5 6 6 6 7 7 7 7 7 7 7 8 8 8 7 7 7 7 7 7 6 6 5 5 6 6 6 6 5 5 5 5 5 4 4 3 3 2 2 1 1 1 0
5 5 5 5 6 6 6 7 7 7 8 8 8 8 7 7 8 7 7 7 7 7 6 5 5 5 6 5 5 5 5 5 5 4 4 3 3 2 2 2 1 1 0 -0
4 5 2 5 6 6 6 6 7 7 7 8 7 8 8 8 7 7 7 7 7 6 6 6 5 4 4 5 5 5 4 4 4 3 3 3 3 3 2 2 1 0 0 -0
4 4 4 5 5 5 6 6 6 7 7 7 7 7 7 8 7 7 7 6 6 6 5 5 5 4 4 4 5 4 4 4 3 3 3 3 3 2 2 1 0 0 -0 -1
3 3 2 4 5 5 6 5 6 6 7 7 7 7 7 7 7 7 6 6 6 5 4 4 4 4 4 4 4 4 4 3 3 3 3 2 2 1 0 0 -0 -1 -1 -2
0 0 3 4 4 5 5 5 6 6 6 6 7 7 7 7 7 6 6 6 5 4 4 4 4 4 3 4 4 3 3 3 3 2 2 2 1 0 -0 -0 -1 -1 -2 -2
0 -1 0 4 4 4 5 5 6 6 6 6 6 6 6 6 6 5 5 5 5 4 4 4 4 3 3 3 3 3 3 2 2 2 1 1 0 -0 -1 -1 -2 -2 -3 -4
1 1 2 3 4 3 3 4 5 5 5 6 5 5 5 5 5 5 5 5 4 4 4 4 3 3 3 2 2 2 2 2 1 1 1 -0 -1 -1 -1 -2 -3 -3 -4 -4
2 1 2 3 3 4 4 3 4 4 5 5 5 5 5 4 4 4 4 4 4 4 3 3 3 2 2 2 2 1 1 1 1 0 -0 -1 -1 -2 -3 -3 -4 -5 -6 -7
2 2 2 2 2 1 3 3 3 3 3 4 4 4 4 4 4 4 4 4 3 3 3 3 2 2 2 1 1 1 1 0 0 -0 -1 -1 -2 -3 -4 -4 -6 -7 -8 -9
2 2 2 2 2 1 1 1 2 2 2 3 3 3 3 3 3 3 3 3 3 3 2 2 2 1 1 1 1 0 0 -0 -1 -1 -2 -3 -4 -5 -5 -7 -9 -11 -11 -12
1 1 2 1 1 2 2 2 1 1 1 1 3 3 3 3 3 3 3 3 2 2 2 1 1 1 1 1 0 0 -0 -1 -2 -3 -4 -5 -5 -7 -9 -11 -13 -13 -11 -12
1 1 1 1 1 1 2 2 2 2 2 3 3 3 2 2 2 2 2 2 2 2 2 1 1 -0 -1 -1 -1 -1 -1 -2 -4 -5 -5 -6 -7 -9 -13 -13 -11 -11 -11 -12
0 0 1 2 1 1 1 1 2 2 2 2 1 2 1 1 2 1 1 1 1 1 1 -0 -0 -1 -2 -2 -3 -3 -4 -5 -6 -7 -8 -10 -11 -11 -10 -11 -11 -11 -11 -12
-1 -0 0 -0 -0 0 0 0 0 1 1 1 1 1 2 2 2 1 1 1 -0 -1 -2 -1 -1 -3 -4 -5 -5 -6 -7 -8 -8 -10 -10 -10 -10 -11 -11 -11 -12 -12 -12 -12
-1 -0 -0 -1 -1 -1 -1 -0 -0 -0 0 0 0 0 0 0 -0 -0 -1 -1 -1 -1 -2 -3 -4 -5 -6 -7 -7 -7 -8 -10 -10 -10 -10 -11 -12 -12 -12 -12 -12 -13 -13 -14
-3 -2 -2 -2 -2 -2 -2 -1 -1 -1 -1 -1 -2 -2 -3 -3 -3 -3 -3 -3 -3 -4 -5 -6 -7 -8 -8 -9 -9 -10 -10 -10 -11 -12 -12 -12 -12 -12 -13 -13 -14 -14 -15 -15
-3 -3 -3 -3 -3 -3 -2 -2 -2 -2 -2 -3 -2 -3 -3 -4 -4 -4 -4 -5 -6 -6 -7 -9 -9 -9 -10 -11 -11 -12 -12 -12 -13 -13 -13 -13 -13 -13 -14 -14 -15 -15 -16 -16
-4 -3 -3 -3 -3 -3 -3 -3 -4 -3 -4 -4 -3 -4 -5 -6 -6 -7 -7 -8 -9 -9 -10 -11 -11 -11 -12 -12 -13 -13 -13 -13 -13 -13 -13 -13 -14 -15 -15 -16 -16 -16 -17 -17
-5 -5 -5 -5 -5 -4 -4 -4 -4 -5 -5 -5 -6 -8 -9 -9 -9 -9 -10 -10 -11 -11 -12 -12 -12 -13 -13 -13 -14 -13 -13 -14 -14 -14 -15 -15 -15 -16 -16 -17 -17 -18 -18 -19
-7 -7 -7 -8 -8 -7 -8 -8 -9 -9 -9 -9 -10 -10 -10 -10 -10 -11 -11 -12 -12 -12 -13 -13 -13 -13 -14 -14 -14 -14 -14 -15 -15 -15 -16 -16 -17 -17 -18 -18 -19 -20 -20 -20
-9 -9 -9 -9 -9 -9 -9 -10 -10 -10 -10 -10 -10 -11 -11 -11 -12 -12 -12 -13 -13 -13 -14 -14 -14 -14 -14 -14 -14 -15 -16 -16 -16 -17 -18 -18 -18 -19 -20 -20 -21 -21 -22 -22
-10 -10 -10 -10 -11 -11 -10 -10 -11 -11 -11 -12 -12 -12 -12 -13 -13 -13 -13 -14 -14 -14 -14 -15 -15 -15 -15 -16 -16 -17 -17 -17 -18 -18 -19 -20 -20 -21 -22 -22 -23 -23 -23 -24
-11 -11 -12 -12 -12 -12 -12 -12 -12 -12 -13 -13 -13 -13 -14 -14 -14 -14 -14 -14 -15 -15 -15 -16 -16 -16 -17 -18 -18 -18 -19 -19 -19 -19 -20 -21 -22 -23 -24 -24 -25 -25 -25 -25
-12 -12 -12 -12 -13 -13 -13 -13 -13 -14 -14 -14 -14 -14 -15 -15 -15 -15 -16 -16 -16 -17 -17 -17 -17 -17 -18 -18 -19 -19 -20 -20 -21 -21 -22 -23 -24 -25 -26 -26 -26 -27 -27 -27
-13 -13 -13 -14 -14 -14 -14 -14 -14 -14 -14 -15 -15 -15 -15 -16 -16 -16 -16 -17 -17 -18 -18 -18 -18 -19 -19 -19 -20 -20 -21 -22 -22 -23 -24 -25 -26 -27 -27 -27 -27 -27 -27 -27

GFSNGP_700_temp_054.txt.gz
Temp
5 5 5 6 6 7 7 7 6 7 7 7 7 7 7 7 7 8 8 7 7 7 7 7 6 6 6 6 6 6 5 4 4 4 3 3 3 3 3 2 2 2 2 2
4 5 5 5 6 6 6 7 6 7 7 7 7 7 8 7 8 7 7 7 7 7 7 7 7 6 6 5 5 5 5 5 4 4 3 3 2 3 3 3 2 2 2 1
3 4 5 4 5 5 6 6 6 6 6 7 7 8 8 7 7 7 7 7 7 7 7 7 7 6 6 5 5 4 4 4 4 4 4 3 2 2 2 2 2 2 1 1
-0 3 2 4 4 5 5 6 6 6 6 7 7 7 8 7 7 7 7 7 7 7 7 6 6 6 5 5 5 4 4 4 4 3 3 3 3 3 2 2 2 2 1 1
-1 3 4 4 5 5 5 6 6 6 6 6 6 7 7 7 7 7 7 7 7 6 6 6 5 5 5 4 4 3 4 3 3 3 3 3 3 2 2 2 2 1 1 0
-2 -1 1 3 4 5 5 5 6 6 5 4 6 7 7 7 7 7 7 7 6 6 6 6 5 4 4 4 4 3 3 3 3 3 3 2 2 2 2 2 2 1 0 -0
-2 -2 2 3 4 4 4 4 5 5 5 4 5 6 6 7 7 6 6 6 6 6 6 6 6 4 4 4 3 3 3 3 4 3 3 2 2 2 2 1 1 0 -1 -1
-2 -2 -1 3 4 4 3 4 4 5 5 4 5 5 6 6 6 6 6 5 5 5 5 5 5 4 4 4 3 3 3 3 3 2 2 2 2 1 1 0 -0 -1 -1 -2
-2 -2 -0 1 2 3 2 3 4 3 4 4 5 5 5 6 5 5 5 4 5 5 5 5 4 4 4 3 3 3 3 2 2 2 2 2 1 1 0 -0 -1 -2 -2 -3
0 1 1 2 2 2 3 2 2 3 3 4 3 4 4 5 5 5 5 5 4 4 4 4 4 3 3 3 3 2 2 2 1 1 1 1 1 -0 -1 -2 -2 -3 -4 -5
-0 1 1 2 2 2 2 2 2 2 2 3 3 3 3 4 4 4 4 4 4 4 4 4 4 3 3 3 2 1 1 1 1 1 0 -0 -1 -2 -3 -4 -4 -5 -5 -7
0 1 2 2 2 2 2 2 2 2 1 1 2 3 3 3 3 3 3 3 3 3 3 3 3 3 3 2 1 1 1 0 0 -1 -1 -2 -3 -4 -5 -6 -6 -7 -8 -11
-2 -0 0 1 1 1 1 2 1 1 2 3 1 -0 2 2 2 2 2 2 2 2 3 2 2 2 2 1 0 -0 -0 -1 -1 -2 -3 -4 -5 -6 -6 -7 -9 -11 -13 -13
-1 -0 -0 0 0 0 1 1 2 1 1 1 1 -0 0 1 1 0 2 2 2 2 2 2 1 1 0 0 -1 -2 -2 -3 -4 -5 -5 -6 -6 -6 -7 -9 -11 -12 -11 -11
-2 -1 -0 -0 -0 0 1 1 1 0 0 1 1 1 1 2 1 1 1 1 1 1 1 1 1 -0 -1 -2 -3 -3 -4 -5 -5 -5 -6 -7 -7 -8 -9 -10 -10 -11 -12 -12
-2 -1 -1 -1 -1 -2 -1 -1 -1 -0 0 0 0 0 0 1 1 0 0 0 0 -0 -2 -1 -1 -1 -2 -3 -4 -4 -5 -6 -7 -7 -8 -9 -10 -10 -10 -11 -12 -13 -13 -12
-2 -2 -1 -1 -2 -2 -2 -2 -1 -1 -1 -1 -0 -0 -0 -0 -0 -1 -1 -2 -2 -2 -2 -3 -3 -4 -5 -6 -7 -8 -8 -8 -9 -10 -11 -11 -11 -12 -12 -13 -13 -13 -13 -13
-3 -3 -3 -3 -3 -3 -3 -2 -2 -2 -2 -2 -2 -2 -2 -2 -3 -3 -3 -3 -2 -3 -4 -5 -5 -6 -7 -8 -9 -9 -10 -10 -11 -12 -12 -13 -13 -13 -14 -14 -14 -14 -14 -14
-5 -4 -4 -4 -4 -4 -3 -3 -3 -3 -3 -3 -3 -3 -4 -4 -4 -4 -4 -4 -5 -6 -7 -7 -8 -8 -9 -9 -10 -11 -11 -12 -12 -13 -13 -14 -14 -14 -14 -14 -14 -14 -15 -15
-5 -5 -5 -5 -4 -3 -5 -4 -4 -4 -4 -4 -5 -4 -5 -5 -6 -6 -6 -7 -7 -8 -9 -9 -9 -10 -11 -11 -12 -12 -13 -13 -13 -14 -14 -14 -14 -14 -14 -15 -15 -16 -16 -17
-7 -7 -6 -6 -6 -6 -6 -6 -6 -7 -7 -8 -8 -8 -8 -8 -8 -9 -10 -10 -10 -10 -10 -11 -11 -12 -12 -13 -13 -14 -14 -14 -14 -14 -14 -14 -15 -15 -16 -16 -17 -17 -18 -19
-9 -9 -9 -8 -8 -8 -9 -9 -9 -9 -9 -10 -10 -10 -10 -10 -11 -11 -11 -11 -11 -12 -12 -12 -13 -13 -14 -14 -14 -14 -14 -15 -15 -15 -15 -16 -16 -17 -17 -18 -18 -19 -20 -20
-10 -10 -10 -10 -10 -10 -10 -10 -10 -10 -10 -11 -11 -11 -11 -11 -11 -12 -12 -12 -12 -13 -13 -14 -14 -14 -14 -15 -15 -15 -15 -15 -16 -16 -17 -17 -18 -18 -18 -19 -20 -20 -21 -22
-11 -11 -11 -11 -11 -11 -11 -11 -11 -12 -12 -12 -12 -12 -12 -12 -13 -13 -13 -13 -14 -14 -14 -15 -15 -15 -15 -15 -15 -16 -16 -16 -17 -17 -18 -19 -19 -20 -20 -21 -22 -22 -23 -24
-12 -12 -12 -13 -13 -12 -13 -13 -13 -13 -13 -13 -14 -14 -14 -14 -14 -14 -14 -14 -15 -15 -15 -16 -16 -16 -16 -17 -17 -17 -18 -18 -18 -19 -19 -20 -20 -21 -22 -22 -23 -24 -25 -26
-13 -13 -13 -13 -14 -14 -14 -14 -14 -14 -14 -14 -14 -14 -15 -15 -15 -16 -16 -16 -16 -16 -17 -17 -17 -18 -18 -18 -18 -19 -19 -19 -20 -20 -21 -21 -22 -23 -24 -25 -25 -26 -26 -27
-14 -14 -14 -14 -14 -14 -14 -15 -15 -15 -15 -15 -15 -16 -16 -16 -16 -17 -17 -17 -17 -18 -18 -18 -18 -18 -18 -19 -19 -19 -20 -20 -21 -21 -22 -23 -24 -25 -25 -26 -26 -27 -27 -27

GFSNGP_700_temp_057.txt.gz
Temp
2 3 4 4 5 6 6 6 6 6 6 7 7 7 7 8 7 7 7 7 7 7 7 7 7 7 6 6 6 6 6 5 5 5 4 4 4 3 3 3 3 2 2 2
1 3 4 4 4 5 5 5 5 6 6 7 7 7 7 7 7 7 7 7 7 7 7 7 7 7 7 6 6 6 5 5 5 5 4 3 3 3 3 3 3 2 2 2
-1 2 2 3 4 4 5 5 5 5 6 6 7 6 7 7 7 7 7 7 7 7 7 7 7 7 6 6 5 5 5 5 4 4 4 3 3 3 3 2 2 2 2 2
-2 -1 -1 3 3 4 4 5 5 5 6 6 6 6 7 7 7 7 7 7 7 7 7 7 7 6 6 6 5 5 4 4 4 4 3 3 3 3 3 2 2 2 1 1
-1 -1 -0 2 3 4 4 5 5 5 5 6 6 6 6 7 7 7 8 7 7 7 7 7 7 6 6 5 5 4 4 3 3 3 3 3 3 2 2 2 2 1 1 1
-2 -2 -1 1 2 3 3 3 4 5 5 5 5 6 6 6 6 6 7 7 7 7 7 6 6 6 6 5 4 4 3 3 3 2 3 3 3 2 2 1 1 1 1 1
-3 -2 -1 1 1 2 1 2 4 4 5 5 5 5 6 6 6 6 7 7 7 7 6 6 6 5 6 6 5 3 3 3 2 2 2 2 2 2 1 1 1 1 1 0
-2 -2 -2 -0 1 1 -0 1 3 4 4 5 5 5 5 5 5 6 6 6 6 6 6 5 5 6 6 5 4 3 3 3 2 2 2 2 2 1 1 1 1 1 -0 -1
-2 -1 0 -0 1 1 -1 -1 1 3 4 4 4 4 5 5 5 5 5 5 5 5 5 5 5 5 5 4 4 3 3 2 2 2 1 1 1 1 1 0 -0 -1 -1 -2
-2 -1 -0 1 1 0 -0 -1 1 1 2 2 3 3 4 5 5 5 5 5 4 4 4 4 4 4 4 4 3 3 3 2 2 2 1 1 1 1 0 -0 -1 -1 -2 -3
-2 -2 -1 0 1 0 1 0 1 1 1 1 0 1 2 3 4 4 4 3 3 3 3 3 3 3 3 3 3 2 2 2 1 1 1 0 -0 -1 -1 -2 -2 -3 -4 -4
-2 -3 -3 -1 -0 1 1 1 1 1 1 1 1 0 1 1 2 3 3 2 3 2 2 3 2 2 2 2 2 2 1 1 0 -0 -1 -1 -2 -2 -3 -3 -4 -5 -5 -6
-3 -3 -4 -2 -1 -0 1 1 1 1 1 1 1 1 1 -1 0 1 2 2 2 1 2 2 2 2 2 2 1 1 1 0 -1 -2 -2 -3 -3 -3 -4 -5 -5 -5 -6 -7
-3 -3 -4 -3 -2 -1 -0 0 1 1 1 0 1 1 1 0 0 -1 -1 -0 -1 -1 1 1 1 1 0 0 0 -0 -0 -0 -1 -3 -4 -4 -4 -5 -5 -6 -6 -7 -8 -9
-4 -4 -4 -2 -2 -1 -1 -0 -0 -0 -0 -1 -1 -0 -0 0 0 0 0 0 -0 -0 -0 1 1 0 -0 -1 -1 -2 -3 -4 -4 -4 -5 -6 -6 -7 -8 -8 -9 -10 -10 -11
-4 -4 -4 -3 -4 -3 -2 -1 -1 -1 -1 -1 -1 -1 -1 -0 -0 0 -0 -0 -0 0 0 -0 -1 -1 -1 -2 -2 -4 -4 -5 -6 -7 -7 -8 -8 -9 -10 -11 -11 -12 -12 -13
-5 -4 -4 -4 -4 -4 -3 -2 -2 -2 -2 -2 -2 -2 -2 -2 -1 -1 -1 -1 -1 -1 -1 -1 -2 -3 -3 -4 -5 -5 -6 -7 -7 -8 -8 -9 -10 -11 -12 -12 -12 -13 -13 -14
-5 -5 -4 -4 -4 -4 -4 -4 -3 -3 -3 -3 -3 -3 -3 -3 -3 -3 -3 -3 -3 -2 -2 -3 -4 -5 -6 -7 -7 -8 -8 -9 -9 -10 -10 -11 -12 -12 -13 -13 -14 -14 -14 -15
-4 -5 -5 -5 -5 -4 -4 -4 -4 -4 -3 -4 -4 -4 -4 -4 -5 -5 -4 -4 -4 -5 -6 -7 -8 -9 -9 -9 -9 -9 -10 -10 -11 -12 -12 -13 -13 -14 -14 -14 -15 -15 -15 -15
-7 -6 -7 -6 -6 -5 -5 -5 -5 -6 -6 -6 -6 -6 -6 -6 -6 -7 -7 -8 -8 -8 -9 -9 -9 -10 -10 -11 -11 -12 -12 -12 -13 -13 -14 -14 -14 -14 -15 -15 -15 -15 -15 -16
-8 -8 -8 -7 -7 -7 -7 -7 -7 -8 -8 -8 -9 -9 -9 -9 -9 -10 -10 -10 -10 -10 -11 -11 -11 -12 -12 -12 -13 -13 -13 -14 -14 -14 -14 -15 -15 -15 -15 -15 -16 -16 -17 -17
-10 -10 -9 -9 -9 -9 -9 -10 -10 -10 -10 -10 -10 -11 -11 -11 -11 -11 -11 -11 -11 -12 -12 -12 -12 -13 -13 -13 -13 -14 -14 -14 -15 -15 -15 -15 -15 -16 -16 -17 -17 -18 -18 -19
-11 -11 -11 -11 -11 -11 -11 -11 -11 -11 -11 -11 -11 -11 -12 -12 -12 -12 -12 -12 -13 -13 -13 -13 -14 -14 -14 -14 -14 -15 -15 -15 -15 -16 -16 -16 -17 -17 -17 -18 -18 -19 -20 -20
-12 -12 -12 -12 -12 -12 -12 -12 -12 -12 -12 -12 -12 -12 -12 -12 -13 -13 -13 -14 -14 -14 -14 -14 -14 -15 -15 -15 -15 -16 -16 -16 -17 -17 -17 -17 -18 -18 -19 -19 -20 -21 -22 -22
-13 -13 -13 -13 -13 -13 -13 -13 -13 -13 -13 -13 -13 -13 -13 -13 -14 -14 -14 -14 -14 -15 -15 -15 -15 -16 -16 -16 -17 -17 -17 -17 -18 -18 -18 -19 -19 -20 -21 -21 -22 -23 -24 -24
-13 -14 -14 -14 -14 -14 -14 -14 -14 -14 -14 -14 -14 -15 -15 -15 -15 -15 -16 -16 -16 -16 -16 -17 -17 -17 -17 -18 -18 -18 -18 -19 -19 -19 -20 -20 -21 -21 -22 -23 -24 -24 -25 -25
-14 -14 -15 -15 -15 -15 -15 -15 -15 -15 -15 -15 -16 -16 -16 -16 -17 -17 -17 -17 -17 -17 -18 -18 -18 -19 -19 -19 -19 -19 -20 -20 -20 -20 -21 -21 -22 -23 -23 -24 -25 -25 -25 -26

GFSNGP_700_temp_060.txt.gz
Temp
0 1 2 3 3 4 5 5 4 5 5 6 6 7 7 7 7 7 7 7 7 8 7 7 7 7 7 6 6 6 6 6 6 5 5 4 3 4 3 3 2 2 2 2
-1 -0 2 2 3 3 4 4 4 4 5 5 6 6 6 7 7 7 7 7 7 7 7 7 7 7 7 7 6 6 6 5 5 5 5 5 4 4 3 3 2 2 2 2
-0 -0 1 2 2 3 3 4 4 4 5 5 5 6 6 6 7 7 7 7 7 7 7 7 7 7 7 7 6 6 5 5 5 4 4 4 4 4 3 3 3 2 2 2
-1 -1 -2 2 2 2 2 3 3 4 4 4 5 5 6 6 6 6 7 7 7 7 7 7 7 7 7 7 6 6 5 5 4 4 3 4 3 3 3 3 3 2 2 2
-1 -0 0 2 2 2 2 2 3 3 4 4 5 5 6 6 6 6 7 7 7 7 7 7 7 7 7 7 6 6 5 5 4 4 3 3 3 3 2 2 2 2 2 2
-3 -2 -3 1 1 2 2 2 3 4 3 4 4 5 5 5 6 6 6 6 7 7 7 7 7 7 7 6 6 5 5 4 3 3 3 3 2 2 2 2 1 1 1 1
-3 -2 -1 -1 0 1 1 2 3 3 3 3 3 3 4 5 5 5 6 6 6 7 7 7 7 7 7 6 5 5 5 4 2 2 2 2 2 2 2 2 2 1 1 1
-3 -3 -3 -1 -0 0 -0 -0 0 1 1 2 1 3 4 5 5 5 5 5 5 6 6 6 7 6 6 5 6 5 5 4 2 2 2 2 1 1 1 2 2 1 -0 0
-2 -1 -1 -1 0 -0 -1 0 -1 -1 0 -0 1 1 1 3 4 5 5 5 5 5 5 5 5 5 5 5 5 4 4 3 2 2 2 2 2 2 2 0 1 0 -1 -1
-3 -2 -2 -2 -2 -1 -1 0 -1 -2 -0 -0 0 0 0 1 2 4 5 5 5 4 4 4 4 4 4 4 4 3 3 3 2 2 2 2 1 1 -0 0 -0 -1 -1 -1
-3 -3 -2 -2 -2 -2 -1 -0 -0 -0 -0 0 0 0 -0 0 1 1 2 4 4 3 3 3 2 1 3 3 3 2 2 2 1 1 1 1 -0 -1 -1 -2 -2 -2 -2 -3
-4 -3 -3 -3 -3 -2 -2 -1 0 1 0 0 0 0 0 -0 -0 -0 0 1 2 2 2 1 1 1 2 2 2 2 2 1 1 1 -0 -0 -1 -1 -2 -3 -3 -4 -4 -4
-4 -4 -4 -3 -3 -2 -3 -2 -1 -1 0 0 -1 -0 -0 -0 -0 -1 -1 -1 0 1 1 0 0 0 0 0 -0 0 -1 -1 -1 -1 -1 -1 -2 -2 -3 -3 -4 -5 -6 -6
-4 -4 -4 -4 -3 -3 -3 -3 -2 -2 -1 -1 -1 -1 -0 -0 -0 -0 -0 -1 -1 -1 -1 -1 -2 -2 -2 -2 -1 -1 -1 -1 -2 -2 -2 -3 -4 -4 -5 -5 -6 -7 -8 -9
-5 -5 -4 -4 -4 -4 -3 -3 -3 -3 -2 -2 -1 -1 -1 -1 -0 -0 -0 -0 -1 -1 -1 -1 -3 -2 -2 -2 -2 -2 -2 -2 -3 -3 -4 -5 -6 -6 -7 -7 -8 -8 -9 -10
-4 -5 -5 -4 -5 -4 -4 -3 -4 -3 -3 -3 -2 -1 -1 -1 -1 -1 -1 -1 -1 -1 -2 -2 -2 -2 -2 -2 -2 -2 -3 -4 -5 -5 -6 -7 -7 -8 -8 -9 -10 -10 -11 -11
-5 -5 -5 -5 -5 -5 -4 -4 -4 -4 -4 -3 -3 -2 -2 -3 -3 -3 -2 -2 -2 -2 -3 -2 -2 -3 -3 -3 -4 -5 -6 -6 -7 -8 -8 -8 -9 -9 -10 -11 -12 -12 -13 -13
-6 -6 -6 -5 -5 -5 -5 -5 -5 -4 -4 -4 -3 -3 -3 -4 -3 -3 -3 -3 -4 -4 -4 -4 -5 -5 -6 -7 -8 -8 -9 -9 -9 -9 -10 -10 -11 -11 -12 -13 -13 -13 -14 -14
-6 -6 -6 -6 -6 -6 -6 -5 -5 -5 -5 -5 -4 -5 -4 -5 -6 -6 -6 -6 -6 -6 -7 -8 -8 -9 -9 -9 -9 -10 -10 -10 -11 -11 -12 -12 -13 -13 -13 -14 -14 -14 -15 -15
-8 -8 -8 -8 -7 -7 -7 -7 -7 -7 -7 -7 -7 -7 -7 -8 -8 -8 -8 -9 -9 -10 -10 -10 -10 -10 -11 -11 -11 -11 -12 -12 -12 -13 -13 -13 -14 -14 -14 -15 -15 -15 -15 -16
-9 -9 -9 -8 -8 -8 -8 -8 -9 -9 -9 -9 -10 -10 -10 -10 -11 -11 -11 -11 -11 -11 -11 -11 -12 -12 -12 -12 -12 -13 -13 -13 -14 -14 -14 -14 -14 -14 -15 -15 -16 -16 -16 -17
-11 -11 -11 -11 -11 -11 -11 -11 -12 -12 -12 -12 -12 -12 -12 -12 -12 -12 -12 -12 -12 -12 -12 -12 -12 -13 -13 -13 -13 -14 -14 -14 -14 -14 -15 -15 -15 -16 -16 -16 -17 -17 -17 -18
-13 -12 -12 -12 -12 -12 -12 -12 -12 -12 -12 -12 -12 -12 -13 -13 -13 -13 -13 -13 -13 -13 -13 -13 -13 -14 -14 -14 -14 -14 -15 -15 -15 -16 -16 -16 -16 -17 -17 -17 -18 -18 -19 -19
-13 -13 -13 -13 -13 -13 -13 -12 -13 -13 -13 -13 -14 -14 -14 -14 -14 -14 -14 -14 -14 -14 -14 -14 -15 -15 -15 -15 -16 -16 -16 -16 -17 -17 -17 -17 -18 -18 -18 -19 -19 -20 -20 -21
-13 -13 -13 -13 -14 -14 -14 -14 -14 -14 -14 -14 -14 -14 -14 -14 -14 -14 -14 -14 -15 -15 -15 -16 -16 -16 -16 -17 -17 -17 -17 -17 -18 -18 -18 -18 -19 -19 -19 -20 -20 -21 -22 -23
-14 -14 -14 -15 -15 -15 -15 -15 -15 -15 -15 -15 -15 -15 -15 -15 -15 -15 -16 -16 -16 -17 -17 -17 -17 -17 -18 -18 -18 -18 -18 -18 -19 -19 -19 -19 -20 -20 -21 -21 -22 -23 -23 -24
-15 -15 -15 -15 -15 -15 -15 -15 -16 -16 -16 -16 -16 -16 -16 -17 -17 -17 -17 -17 -18 -18 -18 -18 -18 -19 -19 -19 -19 -19 -19 -20 -20 -20 -20 -21 -21 -21 -22 -22 -23 -24 -24 -25

GFSNGP_700_temp_063.txt.gz
Temp
-0 0 0 1 3 3 3 3 3 4 4 5 5 5 6 6 7 7 7 7 7 7 7 7 7 7 7 7 6 6 6 6 6 6 5 5 4 4 3 3 3 2 2 2
-1 -1 0 1 2 3 3 3 3 3 3 4 4 5 5 6 6 7 7 7 7 7 7 7 7 7 7 7 7 6 6 6 5 5 5 5 5 4 4 3 3 2 2 2
-0 0 0 1 2 2 2 3 2 2 3 3 4 5 5 5 6 6 6 7 7 7 7 7 7 7 7 7 7 6 6 6 6 5 5 4 4 4 4 4 4 3 3 3
-1 -0 -0 2 2 2 2 2 2 3 3 3 3 3 4 5 5 6 6 6 6 7 7 7 7 7 7 7 7 7 6 6 6 5 5 4 4 3 3 3 3 3 3 2
-1 -0 0 2 2 2 2 2 3 3 3 4 4 4 4 5 5 4 5 5 6 6 7 7 7 7 7 7 7 7 6 6 6 5 5 4 4 3 3 3 3 3 2 2
-4 -3 -1 1 2 1 1 1 1 1 2 2 3 4 4 4 4 4 5 4 5 5 6 6 7 7 7 7 7 7 6 6 5 5 5 4 4 3 3 2 2 2 2 2
-3 -3 -2 -1 0 0 0 0 0 0 -0 -0 1 1 3 3 3 3 4 4 4 5 5 6 6 7 7 7 7 7 6 6 5 4 4 4 4 3 3 2 2 2 2 2
-3 -3 -3 -2 -1 -1 -1 -0 -0 -0 0 -0 -0 1 1 2 3 3 4 4 4 5 5 5 6 6 6 6 6 6 6 5 5 4 4 3 3 3 2 2 1 1 1 1
-3 -2 -2 -2 -2 -1 -1 -0 0 0 0 -0 -1 -0 0 1 2 3 3 4 4 5 4 5 5 5 5 5 5 5 5 5 5 4 3 3 3 2 2 2 1 1 1 1
-3 -3 -3 -3 -3 -2 -2 -2 -1 -1 0 -1 -1 -0 -0 -0 0 1 2 3 4 4 4 4 4 4 4 4 5 4 4 4 3 3 3 3 2 2 1 -1 -1 -1 -0 -1
-4 -4 -3 -3 -3 -3 -3 -2 -2 -2 -1 -0 -0 0 -0 -0 -1 -0 -1 -1 -0 2 3 3 3 3 3 3 2 2 2 1 2 2 2 2 2 1 1 -1 -1 -1 -1 -2
-4 -4 -4 -3 -3 -3 -3 -3 -3 -2 -2 -1 -0 -0 -1 -1 -1 -1 -1 -1 -1 -1 0 1 1 2 2 1 1 1 0 -1 0 1 0 -0 -0 -1 -2 -2 -3 -3 -3 -3
-5 -4 -4 -4 -4 -4 -4 -4 -3 -2 -2 -2 -2 -2 -2 -2 -1 -1 -1 -1 -1 -2 -2 -1 -1 -0 -1 -1 -1 -0 -2 -1 -1 -1 -1 -2 -2 -2 -3 -3 -3 -4 -5 -5
-5 -4 -5 -5 -4 -4 -4 -4 -4 -3 -3 -3 -3 -3 -2 -3 -2 -2 -2 -1 -0 -0 -0 -0 -2 -2 -2 -2 -3 -3 -2 -2 -2 -2 -2 -3 -3 -4 -4 -4 -5 -5 -6 -7
-4 -5 -4 -4 -4 -4 -4 -4 -4 -4 -4 -4 -3 -3 -3 -3 -3 -2 -1 -1 -1 -1 -1 -1 -1 -2 -2 -2 -3 -4 -3 -3 -3 -3 -3 -4 -4 -5 -5 -5 -6 -8 -8 -9
-6 -5 -5 -4 -5 -5 -5 -6 -5 -5 -4 -4 -4 -4 -4 -3 -3 -2 -2 -2 -2 -2 -2 -2 -2 -2 -3 -3 -4 -3 -4 -4 -4 -5 -6 -6 -7 -7 -8 -8 -9 -9 -9 -10
-6 -6 -6 -5 -5 -6 -6 -6 -6 -5 -4 -4 -4 -4 -4 -3 -3 -3 -4 -4 -4 -3 -3 -3 -4 -4 -4 -4 -5 -5 -6 -7 -7 -7 -8 -8 -9 -9 -9 -10 -10 -11 -11 -12
-6 -6 -6 -6 -6 -6 -6 -7 -6 -6 -5 -5 -5 -5 -5 -5 -5 -5 -5 -6 -6 -6 -6 -7 -6 -6 -7 -7 -8 -8 -8 -9 -9 -9 -9 -9 -10 -10 -11 -11 -12 -12 -13 -13
-7 -7 -7 -7 -6 -7 -7 -7 -7 -7 -7 -7 -6 -6 -7 -7 -7 -7 -7 -8 -8 -8 -8 -9 -9 -9 -10 -10 -10 -10 -10 -10 -11 -11 -11 -11 -12 -12 -12 -13 -13 -14 -14 -14
-9 -9 -8 -8 -8 -8 -8 -8 -8 -8 -8 -8 -9 -9 -9 -10 -10 -10 -10 -11 -11 -11 -11 -11 -11 -11 -11 -11 -12 -12 -12 -12 -12 -12 -12 -13 -13 -13 -13 -14 -14 -14 -15 -15
-10 -10 -10 -10 -9 -10 -10 -10 -10 -11 -11 -11 -12 -12 -12 -11 -12 -12 -12 -12 -12 -12 -12 -12 -12 -12 -12 -12 -13 -13 -13 -13 -13 -13 -14 -14 -14 -14 -15 -15 -15 -16 -16 -16
-12 -12 -12 -12 -12 -12 -12 -12 -13 -13 -13 -13 -13 -12 -13 -13 -13 -13 -13 -13 -13 -13 -13 -13 -13 -13 -13 -13 -13 -13 -14 -14 -14 -14 -15 -15 -15 -16 -16 -16 -17 -17 -17 -18
-13 -13 -13 -13 -13 -13 -13 -13 -13 -13 -13 -13 -13 -13 -13 -13 -14 -14 -13 -13 -13 -13 -13 -13 -14 -14 -14 -14 -14 -15 -15 -15 -16 -16 -16 -17 -17 -17 -18 -18 -18 -18 -18 -19
-14 -14 -14 -14 -14 -14 -14 -14 -14 -14 -14 -14 -14 -14 -14 -14 -14 -14 -14 -14 -14 -14 -14 -15 -15 -15 -16 -16 -16 -17 -17 -17 -17 -18 -18 -18 -18 -18 -19 -19 -19 -19 -20 -20
-15 -15 -15 -15 -15 -15 -15 -15 -15 -15 -15 -15 -15 -15 -15 -15 -15 -15 -15 -15 -15 -16 -16 -16 -16 -17 -17 -17 -17 -18 -18 -18 -18 -19 -19 -19 -19 -19 -19 -20 -20 -20 -21 -21
-15 -15 -15 -16 -16 -15 -15 -15 -15 -15 -15 -15 -15 -15 -15 -16 -16 -16 -16 -17 -17 -17 -17 -18 -18 -18 -18 -18 -19 -19 -19 -19 -19 -19 -20 -20 -20 -20 -20 -21 -21 -21 -22 -23
-16 -16 -16 -16 -16 -16 -16 -16 -16 -16 -16 -16 -16 -16 -17 -17 -17 -18 -18 -18 -18 -18 -18 -19 -19 -19 -19 -19 -20 -20 -20 -20 -20 -21 -21 -21 -21 -21 -22 -22 -22 -23 -23 -24